TimeEDT,TemperatureF,Dew PointF,Humidity,Sea Level PressureIn,VisibilityMPH,Wind Direction,Wind SpeedMPH,Gust SpeedMPH,PrecipitationIn,Events,Conditions,WindDirDegrees,DateUTC
12:53 AM,61.0,55.9,83,30.11,10.0,Calm,Calm,-,N/A,,Clear,0,2013-09-05 04:53:00
1:53 AM,61.0,57.0,87,30.12,10.0,Calm,Calm,-,N/A,,Clear,0,2013-09-05 05:53:00
2:53 AM,55.9,55.0,97,30.12,10.0,Calm,Calm,-,N/A,,Clear,0,2013-09-05 06:53:00
3:53 AM,55.9,54.0,93,30.13,9.0,Calm,Calm,-,N/A,,Clear,0,2013-09-05 07:53:00
4:53 AM,54.0,53.1,97,30.14,7.0,Calm,Calm,-,N/A,,Clear,0,2013-09-05 08:53:00
5:17 AM,53.6,53.6,100,30.14,1.5,Calm,Calm,-,N/A,,Clear,0,2013-09-05 09:17:00
5:19 AM,53.6,51.8,94,30.14,0.8,Calm,Calm,-,N/A,,Clear,0,2013-09-05 09:19:00
5:30 AM,53.6,51.8,94,30.14,1.5,Calm,Calm,-,N/A,,Clear,0,2013-09-05 09:30:00
5:32 AM,53.6,51.8,94,30.14,4.0,Calm,Calm,-,N/A,,Clear,0,2013-09-05 09:32:00
5:53 AM,54.0,52.0,93,30.14,7.0,Calm,Calm,-,N/A,,Clear,0,2013-09-05 09:53:00
6:53 AM,54.0,53.1,97,30.16,4.0,Calm,Calm,-,N/A,,Clear,0,2013-09-05 10:53:00
7:53 AM,57.0,55.9,96,30.17,4.0,Calm,Calm,-,N/A,,Clear,0,2013-09-05 11:53:00
8:53 AM,64.0,59.0,84,30.18,10.0,North,4.6,-,N/A,,Partly Cloudy,350,2013-09-05 12:53:00
9:53 AM,69.1,61.0,75,30.19,10.0,North,4.6,-,N/A,,Clear,350,2013-09-05 13:53:00
10:53 AM,73.0,63.0,71,30.18,10.0,Calm,Calm,-,N/A,,Clear,0,2013-09-05 14:53:00
11:53 AM,75.9,64.0,67,30.18,10.0,NW,5.8,-,N/A,,Clear,320,2013-09-05 15:53:00
12:53 PM,77.0,63.0,62,30.18,10.0,NNW,5.8,-,N/A,,Mostly Cloudy,330,2013-09-05 16:53:00
1:53 PM,79.0,64.0,60,30.17,10.0,Variable,6.9,-,N/A,,Mostly Cloudy,0,2013-09-05 17:53:00
2:53 PM,80.1,63.0,56,30.16,10.0,North,3.5,-,N/A,,Scattered Clouds,360,2013-09-05 18:53:00
3:53 PM,78.1,61.0,56,30.15,10.0,Variable,4.6,-,N/A,,Scattered Clouds,0,2013-09-05 19:53:00
4:53 PM,79.0,57.9,48,30.14,10.0,NW,9.2,-,N/A,,Partly Cloudy,320,2013-09-05 20:53:00
5:53 PM,79.0,55.9,45,30.15,10.0,North,5.8,-,N/A,,Clear,10,2013-09-05 21:53:00
6:53 PM,73.9,53.1,48,30.16,10.0,North,8.1,-,N/A,,Clear,10,2013-09-05 22:53:00
7:53 PM,66.9,53.1,61,30.17,10.0,North,8.1,-,N/A,,Clear,10,2013-09-05 23:53:00
8:53 PM,62.1,52.0,70,30.18,10.0,North,3.5,-,N/A,,Clear,10,2013-09-06 00:53:00
9:53 PM,59.0,51.1,75,30.20,10.0,North,5.8,-,N/A,,Clear,10,2013-09-06 01:53:00
10:53 PM,57.0,48.9,74,30.22,10.0,North,3.5,-,N/A,,Clear,350,2013-09-06 02:53:00
11:53 PM,53.1,48.0,83,30.22,10.0,Calm,Calm,-,N/A,,Clear,0,2013-09-06 03:53:00